| time (UTC) | temp F | wind direction | speed knots | gust knots | rain 1hr in | rain 24hr in | rain mn in | humidity % | barometer mb |
| 20260506122106 | 66 | 254 | 1.7 | 7.8 | 0.00 | 0.01 | 0.00 | ||
| 20260506121605 | 66 | 278 | 1.7 | 7.8 | 0.00 | 0.01 | 0.00 | ||
| 20260506120607 | 66 | 20 | 0.9 | 7.8 | 0.00 | 0.01 | 0.00 | ||
| 20260506115605 | 66 | 322 | 0.9 | 7.8 | 0.00 | 0.01 | 0.00 | ||
| 20260506114605 | 66 | 266 | 1.7 | 8.7 | 0.00 | 0.01 | 0.00 | ||
| 20260506113605 | 66 | 275 | 2.6 | 10.4 | 0.00 | 0.01 | 0.00 | ||
| 20260506112606 | 65 | 251 | 3.5 | 7.8 | 0.00 | 0.01 | 0.00 | ||
| 20260506112106 | 65 | 294 | 1.7 | 7.8 | 0.00 | 0.01 | 0.00 | ||
| 20260506111606 | 65 | 322 | 1.7 | 10.4 | 0.00 | 0.01 | 0.00 | ||
| 20260506111107 | 65 | 294 | 2.6 | 15.6 | 0.00 | 0.01 | 0.00 | ||
| 20260506110606 | 65 | 312 | 0.9 | 15.6 | 0.00 | 0.01 | 0.00 | ||
| 20260506110106 | 65 | 272 | 1.7 | 7.0 | 0.00 | 0.01 | 0.00 | ||
| 20260506105606 | 65 | 331 | 2.6 | 8.7 | 0.00 | 0.01 | 0.00 | ||
| 20260506105106 | 64 | 313 | 1.7 | 8.7 | 0.00 | 0.02 | 0.00 | ||
| 20260506104605 | 64 | 265 | 2.6 | 8.7 | 0.00 | 0.04 | 0.00 | ||
| 20260506104105 | 64 | 278 | 1.7 | 7.0 | 0.00 | 0.04 | 0.00 | ||
| 20260506103605 | 64 | 237 | 2.6 | 7.0 | 0.00 | 0.04 | 0.00 | ||
| 20260506103105 | 64 | 259 | 1.7 | 6.1 | 0.00 | 0.04 | 0.00 | ||
| 20260506102606 | 64 | 286 | 1.7 | 6.1 | 0.00 | 0.04 | 0.00 | ||
| 20260506101605 | 64 | 266 | 0.9 | 11.3 | 0.00 | 0.04 | 0.00 | ||
| 20260506101105 | 64 | 270 | 2.6 | 11.3 | 0.00 | 0.04 | 0.00 | ||
| 20260506100605 | 64 | 270 | 2.6 | 8.7 | 0.00 | 0.04 | 0.00 | ||
| 20260506092604 | 64 | 311 | 2.6 | 17.4 | 0.00 | 0.04 | 0.00 | ||
| 20260506090604 | 64 | 283 | 2.6 | 8.7 | 0.00 | 0.04 | 0.00 | ||
| 20260506085604 | 64 | 317 | 1.7 | 8.7 | 0.00 | 0.04 | 0.00 | ||
| 20260506084604 | 64 | 269 | 2.6 | 8.7 | 0.00 | 0.04 | 0.00 | ||
| 20260506083105 | 64 | 267 | 1.7 | 7.0 | 0.00 | 0.04 | 0.00 | ||
| 20260506072604 | 66 | 285 | 1.7 | 10.4 | 0.00 | 0.04 | 0.00 | ||
| 20260506070605 | 66 | 232 | 2.6 | 7.8 | 0.00 | 0.04 | 0.00 | ||
| 20260506062104 | 68 | 307 | 2.6 | 7.8 | 0.00 | 0.04 | 0.00 | ||
| 20260506061603 | 67 | 270 | 2.6 | 10.4 | 0.00 | 0.04 | 0.00 | ||
| 20260506050604 | 69 | 277 | 1.7 | 6.1 | 0.00 | 0.04 | 0.00 | ||
| 20260506045104 | 69 | 287 | 2.6 | 11.3 | 0.00 | 0.04 | 0.00 | ||
| 20260506043604 | 69 | 240 | 2.6 | 11.3 | 0.00 | 0.04 | 0.00 | ||
| 20260506043104 | 69 | 347 | 3.5 | 11.3 | 0.00 | 0.04 | 0.00 | ||
| 20260506041604 | 69 | 264 | 0.9 | 7.0 | 0.00 | 0.04 | 0.00 | ||
| 20260506041104 | 70 | 275 | 2.6 | 12.2 | 0.00 | 0.04 | 0.00 | ||
| 20260506040105 | 70 | 280 | 1.7 | 10.4 | 0.00 | 0.04 | 0.00 | ||
| 20260506035604 | 70 | 267 | 3.5 | 11.3 | 0.00 | 0.04 | 0.04 | ||
| 20260506035103 | 70 | 253 | 2.6 | 11.3 | 0.00 | 0.04 | 0.04 | ||
| 20260506033604 | 70 | 248 | 1.7 | 10.4 | 0.00 | 0.04 | 0.04 | ||
| 20260506031603 | 70 | 317 | 1.7 | 4.3 | 0.00 | 0.04 | 0.04 | ||
| 20260506030603 | 70 | 346 | 1.7 | 12.2 | 0.00 | 0.04 | 0.04 | ||
| 20260506030104 | 71 | 304 | 1.7 | 12.2 | 0.00 | 0.04 | 0.04 | ||
| 20260506025104 | 71 | 261 | 1.7 | 10.4 | 0.00 | 0.04 | 0.04 | ||
| 20260506024104 | 71 | 315 | 1.7 | 7.8 | 0.00 | 0.04 | 0.04 | ||
| 20260506023104 | 72 | 283 | 2.6 | 10.4 | 0.00 | 0.04 | 0.04 | ||
| 20260506022605 | 72 | 162 | 2.6 | 10.4 | 0.00 | 0.04 | 0.04 | ||
| 20260506021604 | 73 | 274 | 5.2 | 13.9 | 0.00 | 0.04 | 0.04 | ||
| 20260506020604 | 73 | 285 | 1.7 | 12.2 | 0.00 | 0.04 | 0.04 | ||
| 20260506020104 | 72 | 284 | 3.5 | 11.3 | 0.00 | 0.04 | 0.04 | ||
| 20260506015604 | 72 | 306 | 2.6 | 10.4 | 0.00 | 0.04 | 0.04 | ||
| 20260506013104 | 73 | 253 | 2.6 | 11.3 | 0.00 | 0.04 | 0.04 | ||
| 20260506010604 | 74 | 259 | 4.3 | 10.4 | 0.00 | 0.04 | 0.04 | ||
| 20260506003604 | 73 | 231 | 2.6 | 8.7 | 0.00 | 0.04 | 0.04 | ||
| 20260506003105 | 74 | 281 | 2.6 | 8.7 | 0.00 | 0.04 | 0.04 | ||
| 20260506002604 | 73 | 244 | 1.7 | 5.2 | 0.00 | 0.04 | 0.04 | ||
| 20260506002104 | 73 | 236 | 2.6 | 8.7 | 0.00 | 0.04 | 0.04 | ||
| 20260506001604 | 73 | 269 | 1.7 | 8.7 | 0.00 | 0.04 | 0.04 | ||
| 20260506000604 | 73 | 255 | 0.9 | 6.1 | 0.00 | 0.04 | 0.04 | ||
| 20260506000105 | 73 | 295 | 0.9 | 6.1 | 0.00 | 0.04 | 0.04 | ||
| 20260505231604 | 77 | 272 | 1.7 | 8.7 | 0.00 | 0.04 | 0.04 | ||
| 20260505225604 | 78 | 246 | 1.7 | 8.7 | 0.00 | 0.04 | 0.04 | ||
| 20260505225103 | 78 | 271 | 3.5 | 8.7 | 0.00 | 0.04 | 0.04 | ||
| 20260505224605 | 79 | 286 | 3.5 | 8.7 | 0.00 | 0.04 | 0.04 | ||
| 20260505224104 | 79 | 280 | 1.7 | 13.9 | 0.00 | 0.04 | 0.04 | ||
| 20260505223604 | 79 | 276 | 4.3 | 13.9 | 0.00 | 0.04 | 0.04 | ||
| 20260505223104 | 80 | 279 | 3.5 | 13.9 | 0.00 | 0.04 | 0.04 | ||
| 20260505222104 | 81 | 277 | 7.0 | 20.0 | 0.00 | 0.04 | 0.04 | ||
| 20260505221103 | 80 | 287 | 5.2 | 14.8 | 0.00 | 0.04 | 0.04 | ||
| 20260505220604 | 83 | 284 | 5.2 | 13.9 | 0.00 | 0.04 | 0.04 | ||
| 20260505215604 | 83 | 246 | 5.2 | 12.2 | 0.00 | 0.04 | 0.04 | ||
| 20260505215104 | 83 | 266 | 3.5 | 10.4 | 0.00 | 0.04 | 0.04 | ||
| 20260505214604 | 84 | 279 | 1.7 | 8.7 | 0.00 | 0.04 | 0.04 | ||
| 20260505212103 | 81 | 281 | 4.3 | 14.8 | 0.00 | 0.04 | 0.04 | ||
| 20260505205605 | 81 | 297 | 4.3 | 20.0 | 0.00 | 0.04 | 0.04 | ||
| 20260505205104 | 83 | 279 | 4.3 | 20.0 | 0.00 | 0.04 | 0.04 | ||
| 20260505203604 | 83 | 278 | 5.2 | 11.3 | 0.00 | 0.04 | 0.04 | ||
| 20260505203103 | 84 | 285 | 5.2 | 11.3 | 0.00 | 0.04 | 0.04 | ||
| 20260505202604 | 87 | 296 | 2.6 | 13.0 | 0.00 | 0.04 | 0.04 | ||
| 20260505201604 | 84 | 274 | 4.3 | 21.7 | 0.00 | 0.04 | 0.04 | ||
| 20260505201104 | 84 | 303 | 5.2 | 21.7 | 0.00 | 0.04 | 0.04 | ||
| 20260505200604 | 85 | 262 | 3.5 | 19.1 | 0.00 | 0.04 | 0.04 | ||
| 20260505195604 | 88 | 310 | 4.3 | 13.0 | 0.00 | 0.04 | 0.04 | ||
| 20260505194603 | 87 | 277 | 4.3 | 10.4 | 0.00 | 0.04 | 0.04 | ||
| 20260505194104 | 85 | 274 | 3.5 | 12.2 | 0.00 | 0.04 | 0.04 | ||
| 20260505193604 | 88 | 287 | 5.2 | 15.6 | 0.00 | 0.04 | 0.04 | ||
| 20260505193104 | 87 | 303 | 5.2 | 17.4 | 0.00 | 0.04 | 0.04 | ||
| 20260505192604 | 88 | 286 | 5.2 | 17.4 | 0.00 | 0.04 | 0.04 | ||
| 20260505192104 | 87 | 295 | 3.5 | 15.6 | 0.00 | 0.04 | 0.04 | ||
| 20260505191104 | 83 | 290 | 5.2 | 14.8 | 0.00 | 0.04 | 0.04 | ||
| 20260505185603 | 85 | 285 | 4.3 | 17.4 | 0.00 | 0.04 | 0.04 | ||
| 20260505184604 | 87 | 288 | 4.3 | 13.9 | 0.00 | 0.04 | 0.04 | ||
| 20260505183104 | 84 | 293 | 4.3 | 15.6 | 0.00 | 0.04 | 0.04 | ||
| 20260505182604 | 84 | 267 | 2.6 | 10.4 | 0.00 | 0.04 | 0.04 | ||
| 20260505181604 | 85 | 266 | 4.3 | 15.6 | 0.00 | 0.04 | 0.04 | ||
| 20260505175104 | 84 | 274 | 5.2 | 18.2 | 0.00 | 0.04 | 0.04 | ||
| 20260505173604 | 88 | 288 | 4.3 | 19.1 | 0.01 | 0.04 | 0.04 | ||
| 20260505172604 | 84 | 281 | 6.1 | 20.0 | 0.01 | 0.04 | 0.04 | ||
| 20260505172104 | 84 | 326 | 6.1 | 20.0 | 0.01 | 0.04 | 0.04 | ||
| 20260505171604 | 84 | 296 | 2.6 | 13.9 | 0.01 | 0.04 | 0.04 | ||
| 20260505171104 | 83 | 279 | 4.3 | 13.9 | 0.01 | 0.04 | 0.04 | ||
| 20260505170604 | 84 | 329 | 4.3 | 11.3 | 0.01 | 0.04 | 0.04 | ||
| 20260505165603 | 82 | 231 | 5.2 | 13.0 | 0.01 | 0.04 | 0.04 | ||
| 20260505164604 | 82 | 313 | 5.2 | 11.3 | 0.00 | 0.03 | 0.03 | ||
| 20260505164104 | 82 | 303 | 2.6 | 8.7 | 0.00 | 0.03 | 0.03 | ||
| 20260505162104 | 81 | 309 | 3.5 | 13.0 | 0.00 | 0.03 | 0.03 | ||
| 20260505160604 | 81 | 298 | 3.5 | 14.8 | 0.00 | 0.03 | 0.03 | ||
| 20260505152104 | 79 | 320 | 4.3 | 8.7 | 0.00 | 0.03 | 0.03 | ||
| 20260505151104 | 78 | 301 | 4.3 | 12.2 | 0.00 | 0.03 | 0.03 | ||
| 20260505150604 | 78 | 288 | 5.2 | 12.2 | 0.00 | 0.03 | 0.03 | ||
| 20260505150104 | 77 | 306 | 3.5 | 10.4 | 0.00 | 0.03 | 0.03 | ||
| 20260505140104 | 75 | 290 | 4.3 | 7.0 | 0.00 | 0.03 | 0.03 | ||
| 20260505124604 | 65 | 353 | 1.7 | 2.6 | 0.00 | 0.03 | 0.03 | ||
| 20260505123604 | 64 | 21 | 0.0 | 1.7 | 0.00 | 0.03 | 0.03 |